Location: Newark
(47.5833°N, 8.1500°E)
Time: 12:26:24
(UTC+00:00)

Transit 2A - Pass Details

Date: 05 November 2020
Orbit: 595 x 964 km, 66.7° (Epoch: 27 November)

Event Time Altitude Azimuth Distance (km) Brightness Sun altitude
Rises 22:09:54 0° 199° (SSW) 3,625 - -56.0°
Reaches altitude 10° 22:12:29 10° 196° (SSW) 2,692 - -56.2°
Maximum altitude 22:18:43 60° 118° (ESE) 1,090 - -56.7°
Drops below altitude 10° 22:24:48 10° 40° (NE) 2,632 - -57.0°
Sets 22:27:18 0° 37° (NE) 3,540 - -57.2°
